Find Starlink 31758

NORAD ID: 59621 Int'l Des: 2024-080 Owner: SPXS Country: US Constellation: starlink operational
LEOCIRCULAR

リアルタイム位置

3D地球を読み込み中...

Starlink 31758について

説明を読み込み中...

次回通過

Passes for default location (London). Set your location on the main map for personalized predictions.

高度履歴

Loading altitude history...

軌道要素

1 59621U 24080W 26127.18897872 -.00002036 00000-0 -64557-4 0 9999
2 59621 43.0005 63.7059 0000729 289.0491 71.0281 15.27552002113528
Epoch: May 7, 2026 • Age: 8 hours

現在のステータス

高度 485.8 km
速度 7.63 km/s
衛星直下点 38.39°N, 125.45°E
打ち上げ日 Apr 28, 2024
運用期間 2 years
タイプ internet

技術仕様

分類 Payload
質量 730.00 kg
乾燥質量 700.00 kg
総質量 730.00 kg
長さ 0.30 m
直径 4.10 m
スパン 29.00 m
形状 Box + pan
製造者 SPXS
バスタイプ Starlink V2M
フェーズステータス In Orbit
所有者/国 SPXS/US

Most Searched